Year,Month,Day,Hour,Minute,Value (Times are PST for temperature in C)
2020,02,01,00,00,10.20
2020,02,01,00,01,10.20
2020,02,01,00,02,10.20
2020,02,01,00,03,10.20
2020,02,01,00,04,10.20
2020,02,01,00,05,10.20
2020,02,01,00,06,10.20
2020,02,01,00,07,10.20
2020,02,01,00,08,10.20
2020,02,01,00,09,10.20
2020,02,01,00,10,10.20
2020,02,01,00,11,10.20
2020,02,01,00,12,10.20
2020,02,01,00,13,10.20
2020,02,01,00,14,10.20
2020,02,01,00,15,10.20
2020,02,01,00,16,10.20
2020,02,01,00,17,10.20
2020,02,01,00,18,10.20
2020,02,01,00,19,10.20
2020,02,01,00,20,10.20
2020,02,01,00,21,10.20
2020,02,01,00,22,10.20
2020,02,01,00,23,10.20
2020,02,01,00,24,10.20
2020,02,01,00,25,10.20
2020,02,01,00,26,10.20
2020,02,01,00,27,10.20
2020,02,01,00,28,10.20
2020,02,01,00,29,10.20
2020,02,01,00,30,10.20
2020,02,01,00,31,10.30
2020,02,01,00,32,10.30
2020,02,01,00,33,10.30
2020,02,01,00,34,10.30
2020,02,01,00,35,10.30
2020,02,01,00,36,10.20
2020,02,01,00,37,10.20
2020,02,01,00,38,10.20
2020,02,01,00,39,10.20
2020,02,01,00,40,10.20
2020,02,01,00,41,10.20
2020,02,01,00,42,10.20
2020,02,01,00,43,10.20
2020,02,01,00,44,10.20
2020,02,01,00,45,10.20
2020,02,01,00,46,10.20
2020,02,01,00,47,10.20
2020,02,01,00,48,10.20
2020,02,01,00,49,10.20
2020,02,01,00,50,10.20
2020,02,01,00,51,10.20
2020,02,01,00,52,10.20
2020,02,01,00,53,10.20
2020,02,01,00,54,10.20
2020,02,01,00,55,10.20
2020,02,01,00,56,10.20
2020,02,01,00,57,10.20
2020,02,01,00,58,10.20
2020,02,01,00,59,10.20
2020,02,01,01,00,10.30
2020,02,01,01,01,10.30
2020,02,01,01,02,10.30
2020,02,01,01,03,10.30
2020,02,01,01,04,10.30
2020,02,01,01,05,10.30
2020,02,01,01,06,10.30
2020,02,01,01,07,10.30
2020,02,01,01,08,10.40
2020,02,01,01,09,10.40
2020,02,01,01,10,10.40
2020,02,01,01,11,10.40
2020,02,01,01,12,10.40
2020,02,01,01,13,10.40
2020,02,01,01,14,10.40
2020,02,01,01,15,10.40
2020,02,01,01,16,10.40
2020,02,01,01,17,10.50
2020,02,01,01,18,10.50
2020,02,01,01,19,10.50
2020,02,01,01,20,10.40
2020,02,01,01,21,10.40
2020,02,01,01,22,10.40
2020,02,01,01,23,10.40
2020,02,01,01,24,10.40
2020,02,01,01,25,10.40
2020,02,01,01,26,10.40
2020,02,01,01,27,10.40
2020,02,01,01,28,10.50
2020,02,01,01,29,10.50
2020,02,01,01,30,10.40
2020,02,01,01,31,10.40
2020,02,01,01,32,10.40
2020,02,01,01,33,10.50
2020,02,01,01,34,10.50
2020,02,01,01,35,10.50
2020,02,01,01,36,10.60
2020,02,01,01,37,10.60
2020,02,01,01,38,10.60
2020,02,01,01,39,10.60
2020,02,01,01,40,10.60
2020,02,01,01,41,10.60
2020,02,01,01,42,10.60
2020,02,01,01,43,10.60
2020,02,01,01,44,10.60
2020,02,01,01,45,10.60
2020,02,01,01,46,10.70
2020,02,01,01,47,10.80
2020,02,01,01,48,10.80
2020,02,01,01,49,10.90
2020,02,01,01,50,10.90
2020,02,01,01,51,11.00
2020,02,01,01,52,11.00
2020,02,01,01,53,11.00
2020,02,01,01,54,11.10
2020,02,01,01,55,11.10
2020,02,01,01,56,11.10
2020,02,01,01,57,11.00
2020,02,01,01,58,11.00
2020,02,01,01,59,10.90
2020,02,01,02,00,10.80
2020,02,01,02,01,10.80
2020,02,01,02,02,10.70
2020,02,01,02,03,10.70
2020,02,01,02,04,10.70
2020,02,01,02,05,10.70
2020,02,01,02,06,10.70
2020,02,01,02,07,10.70
2020,02,01,02,08,10.70
2020,02,01,02,09,10.80
2020,02,01,02,10,10.80
2020,02,01,02,11,10.90
2020,02,01,02,12,10.90
2020,02,01,02,13,11.00
2020,02,01,02,14,11.00
2020,02,01,02,15,11.00
2020,02,01,02,16,11.00
2020,02,01,02,17,11.00
2020,02,01,02,18,11.00
2020,02,01,02,19,11.00
2020,02,01,02,20,11.00
2020,02,01,02,21,11.00
2020,02,01,02,22,11.00
2020,02,01,02,23,11.00
2020,02,01,02,24,10.90
2020,02,01,02,25,10.90
2020,02,01,02,26,10.90
2020,02,01,02,27,10.90
2020,02,01,02,28,10.90
2020,02,01,02,29,10.90
2020,02,01,02,30,10.80
2020,02,01,02,31,10.80
2020,02,01,02,32,10.80
2020,02,01,02,33,10.80
2020,02,01,02,34,10.70
2020,02,01,02,35,10.70
2020,02,01,02,36,10.70
2020,02,01,02,37,10.70
2020,02,01,02,38,10.70
2020,02,01,02,39,10.70
2020,02,01,02,40,10.60
2020,02,01,02,41,10.60
2020,02,01,02,42,10.60
2020,02,01,02,43,10.60
2020,02,01,02,44,10.50
2020,02,01,02,45,10.50
2020,02,01,02,46,10.50
2020,02,01,02,47,10.50
2020,02,01,02,48,10.50
2020,02,01,02,49,10.50
2020,02,01,02,50,10.50
2020,02,01,02,51,10.50
2020,02,01,02,52,10.50
2020,02,01,02,53,10.60
2020,02,01,02,54,10.60
2020,02,01,02,55,10.60
2020,02,01,02,56,10.60
2020,02,01,02,57,10.60
2020,02,01,02,58,10.60
2020,02,01,02,59,10.60
2020,02,01,03,00,10.60
2020,02,01,03,01,10.60
2020,02,01,03,02,10.60
2020,02,01,03,03,10.60
2020,02,01,03,04,10.60
2020,02,01,03,05,10.60
2020,02,01,03,06,10.60
2020,02,01,03,07,10.60
2020,02,01,03,08,10.60
2020,02,01,03,09,10.60
2020,02,01,03,10,10.60
2020,02,01,03,11,10.60
2020,02,01,03,12,10.60
2020,02,01,03,13,10.60
2020,02,01,03,14,10.60
2020,02,01,03,15,10.60
2020,02,01,03,16,10.60
2020,02,01,03,17,10.60
2020,02,01,03,18,10.70
2020,02,01,03,19,10.70
2020,02,01,03,20,10.70
2020,02,01,03,21,10.70
2020,02,01,03,22,10.70
2020,02,01,03,23,10.70
2020,02,01,03,24,10.70
2020,02,01,03,25,10.70
2020,02,01,03,26,10.70
2020,02,01,03,27,10.70
2020,02,01,03,28,10.70
2020,02,01,03,29,10.70
2020,02,01,03,30,10.70
2020,02,01,03,31,10.60
2020,02,01,03,32,10.60
2020,02,01,03,33,10.60
2020,02,01,03,34,10.60
2020,02,01,03,35,10.60
2020,02,01,03,36,10.60
2020,02,01,03,37,10.60
2020,02,01,03,38,10.60
2020,02,01,03,39,10.50
2020,02,01,03,40,10.50
2020,02,01,03,41,10.50
2020,02,01,03,42,10.50
2020,02,01,03,43,10.50
2020,02,01,03,44,10.50
2020,02,01,03,45,10.40
2020,02,01,03,46,10.40
2020,02,01,03,47,10.40
2020,02,01,03,48,10.40
2020,02,01,03,49,10.40
2020,02,01,03,50,10.40
2020,02,01,03,51,10.40
2020,02,01,03,52,10.40
2020,02,01,03,53,10.40
2020,02,01,03,54,10.50
2020,02,01,03,55,10.50
2020,02,01,03,56,10.50
2020,02,01,03,57,10.50
2020,02,01,03,58,10.50
2020,02,01,03,59,10.60
2020,02,01,04,00,10.60
2020,02,01,04,01,10.60
2020,02,01,04,02,10.60
2020,02,01,04,03,10.60
2020,02,01,04,04,10.50
2020,02,01,04,05,10.50
2020,02,01,04,06,10.50
2020,02,01,04,07,10.50
2020,02,01,04,08,10.50
2020,02,01,04,09,10.40
2020,02,01,04,10,10.40
2020,02,01,04,11,10.40
2020,02,01,04,12,10.30
2020,02,01,04,13,10.30
2020,02,01,04,14,10.30
2020,02,01,04,15,10.30
2020,02,01,04,16,10.20
2020,02,01,04,17,10.20
2020,02,01,04,18,10.20
2020,02,01,04,19,10.20
2020,02,01,04,20,10.20
2020,02,01,04,21,10.10
2020,02,01,04,22,10.10
2020,02,01,04,23,10.10
2020,02,01,04,24,10.10
2020,02,01,04,25,10.10
2020,02,01,04,26,10.10
2020,02,01,04,27,10.10
2020,02,01,04,28,10.10
2020,02,01,04,29,10.10
2020,02,01,04,30,10.10
2020,02,01,04,31,10.10
2020,02,01,04,32,10.10
2020,02,01,04,33,10.20
2020,02,01,04,34,10.20
2020,02,01,04,35,10.20
2020,02,01,04,36,10.20
2020,02,01,04,37,10.20
2020,02,01,04,38,10.20
2020,02,01,04,39,10.20
2020,02,01,04,40,10.20
2020,02,01,04,41,10.20
2020,02,01,04,42,10.20
2020,02,01,04,43,10.30
2020,02,01,04,44,10.30
2020,02,01,04,45,10.30
2020,02,01,04,46,10.30
2020,02,01,04,47,10.30
2020,02,01,04,48,10.30
2020,02,01,04,49,10.40
2020,02,01,04,50,10.40
2020,02,01,04,51,10.50
2020,02,01,04,52,10.60
2020,02,01,04,53,10.70
2020,02,01,04,54,10.70
2020,02,01,04,55,10.60
2020,02,01,04,56,10.60
2020,02,01,04,57,10.60
2020,02,01,04,58,10.60
2020,02,01,04,59,10.60
2020,02,01,05,00,10.50
2020,02,01,05,01,10.50
2020,02,01,05,02,10.40
2020,02,01,05,03,10.40
2020,02,01,05,04,10.40
2020,02,01,05,05,10.30
2020,02,01,05,06,10.30
2020,02,01,05,07,10.30
2020,02,01,05,08,10.30
2020,02,01,05,09,10.30
2020,02,01,05,10,10.30
2020,02,01,05,11,10.30
2020,02,01,05,12,10.30
2020,02,01,05,13,10.30
2020,02,01,05,14,10.30
2020,02,01,05,15,10.30
2020,02,01,05,16,10.30
2020,02,01,05,17,10.30
2020,02,01,05,18,10.30
2020,02,01,05,19,10.30
2020,02,01,05,20,10.30
2020,02,01,05,21,10.20
2020,02,01,05,22,10.20
2020,02,01,05,23,10.20
2020,02,01,05,24,10.30
2020,02,01,05,25,10.30
2020,02,01,05,26,10.30
2020,02,01,05,27,10.30
2020,02,01,05,28,10.30
2020,02,01,05,29,10.30
2020,02,01,05,30,10.40
2020,02,01,05,31,10.40
2020,02,01,05,32,10.40
2020,02,01,05,33,10.40
2020,02,01,05,34,10.40
2020,02,01,05,35,10.40
2020,02,01,05,36,10.30
2020,02,01,05,37,10.30
2020,02,01,05,38,10.30
2020,02,01,05,39,10.30
2020,02,01,05,40,10.20
2020,02,01,05,41,10.20
2020,02,01,05,42,10.20
2020,02,01,05,43,10.10
2020,02,01,05,44,10.10
2020,02,01,05,45,10.10
2020,02,01,05,46,10.10
2020,02,01,05,47,10.10
2020,02,01,05,48,10.10
2020,02,01,05,49,10.00
2020,02,01,05,50,10.00
2020,02,01,05,51,10.00
2020,02,01,05,52,10.00
2020,02,01,05,53,9.90
2020,02,01,05,54,9.90
2020,02,01,05,55,9.90
2020,02,01,05,56,9.80
2020,02,01,05,57,9.80
2020,02,01,05,58,9.80
2020,02,01,05,59,9.80
2020,02,01,06,00,9.80
2020,02,01,06,01,9.80
2020,02,01,06,02,9.80
2020,02,01,06,03,9.70
2020,02,01,06,04,9.70
2020,02,01,06,05,9.70
2020,02,01,06,06,9.70
2020,02,01,06,07,9.70
2020,02,01,06,08,9.70
2020,02,01,06,09,9.70
2020,02,01,06,10,9.70
2020,02,01,06,11,9.70
2020,02,01,06,12,9.70
2020,02,01,06,13,9.70
2020,02,01,08,45,7.70
2020,02,01,08,46,7.70
2020,02,01,08,47,7.70
2020,02,01,08,48,7.70
2020,02,01,08,49,7.70
2020,02,01,08,50,7.70
2020,02,01,08,51,7.60
2020,02,01,08,52,7.60
2020,02,01,08,53,7.60
2020,02,01,08,54,7.60
2020,02,01,08,55,7.60
2020,02,01,08,56,7.60
2020,02,01,08,57,7.60
2020,02,01,08,58,7.50
2020,02,01,08,59,7.50
2020,02,01,09,00,7.50
2020,02,01,09,01,7.50
2020,02,01,09,02,7.50
2020,02,01,09,03,7.50
2020,02,01,09,04,7.50
2020,02,01,09,05,7.50
2020,02,01,09,06,7.50
2020,02,01,09,07,7.40
2020,02,01,09,08,7.40
2020,02,01,09,09,7.40
2020,02,01,09,10,7.40
2020,02,01,09,11,7.40
2020,02,01,09,12,7.40
2020,02,01,09,13,7.40
2020,02,01,09,14,7.40
2020,02,01,09,15,7.40
2020,02,01,09,16,7.40
2020,02,01,09,17,7.40
2020,02,01,09,18,7.40
2020,02,01,09,19,7.40
2020,02,01,09,20,7.40
2020,02,01,09,21,7.40
2020,02,01,09,22,7.40
2020,02,01,09,23,7.40
2020,02,01,09,24,7.40
2020,02,01,09,25,7.40
2020,02,01,09,26,7.40
2020,02,01,09,27,7.40
2020,02,01,09,28,7.40
2020,02,01,09,29,7.40
2020,02,01,09,30,7.40
2020,02,01,09,31,7.40
2020,02,01,09,32,7.40
2020,02,01,09,33,7.40
2020,02,01,09,34,7.40
2020,02,01,09,35,7.30
2020,02,01,09,36,7.30
2020,02,01,09,37,7.30
2020,02,01,09,38,7.30
2020,02,01,09,39,7.30
2020,02,01,09,40,7.30
2020,02,01,09,41,7.30
2020,02,01,09,42,7.30
2020,02,01,09,43,7.30
2020,02,01,09,44,7.30
2020,02,01,09,45,7.30
2020,02,01,09,46,7.30
2020,02,01,09,47,7.30
2020,02,01,09,48,7.30
2020,02,01,09,49,7.30
2020,02,01,09,50,7.30
2020,02,01,09,51,7.30
2020,02,01,09,52,7.30
2020,02,01,09,53,7.30
2020,02,01,09,54,7.30
2020,02,01,09,55,7.30
2020,02,01,09,56,7.30
2020,02,01,09,57,7.30
2020,02,01,09,58,7.40
2020,02,01,09,59,7.40
2020,02,01,10,00,7.40
2020,02,01,10,01,7.50
2020,02,01,10,02,7.50
2020,02,01,10,03,7.60
2020,02,01,10,04,7.60
2020,02,01,10,05,7.60
2020,02,01,10,06,7.70
2020,02,01,10,07,7.70
2020,02,01,10,08,7.70
2020,02,01,10,09,7.80
2020,02,01,10,10,7.80
2020,02,01,10,11,7.80
2020,02,01,10,12,7.80
2020,02,01,10,13,7.80
2020,02,01,10,14,7.90
2020,02,01,10,15,7.90
2020,02,01,10,16,7.90
2020,02,01,10,17,7.90
2020,02,01,10,18,7.90
2020,02,01,10,19,7.90
2020,02,01,10,20,7.90
2020,02,01,10,21,7.90
2020,02,01,10,22,7.90
2020,02,01,10,23,7.90
2020,02,01,10,24,7.90
2020,02,01,10,25,7.90
2020,02,01,10,26,8.00
2020,02,01,10,27,7.90
2020,02,01,10,28,8.00
2020,02,01,10,29,8.00
2020,02,01,10,30,7.90
2020,02,01,10,31,7.90
2020,02,01,10,32,7.90
2020,02,01,10,33,7.90
2020,02,01,10,34,7.90
2020,02,01,10,35,7.90
2020,02,01,10,36,7.90
2020,02,01,10,37,7.90
2020,02,01,10,38,7.90
2020,02,01,10,39,7.90
2020,02,01,10,40,7.90
2020,02,01,10,41,7.90
2020,02,01,10,42,7.90
2020,02,01,10,43,7.90
2020,02,01,10,44,7.90
2020,02,01,10,45,7.90
2020,02,01,10,46,7.80
2020,02,01,10,47,7.80
2020,02,01,10,48,7.80
2020,02,01,10,49,7.80
2020,02,01,10,50,7.80
2020,02,01,10,51,7.80
2020,02,01,10,52,7.80
2020,02,01,10,53,7.80
2020,02,01,10,54,7.80
2020,02,01,10,55,7.80
2020,02,01,10,56,7.80
2020,02,01,10,57,7.80
2020,02,01,10,58,7.80
2020,02,01,10,59,7.80
2020,02,01,11,00,7.80
2020,02,01,11,01,7.80
2020,02,01,11,02,7.80
2020,02,01,11,03,7.90
2020,02,01,11,04,7.90
2020,02,01,11,05,7.90
2020,02,01,11,06,7.90
2020,02,01,11,07,7.90
2020,02,01,11,08,8.00
2020,02,01,11,09,8.00
2020,02,01,11,10,8.00
2020,02,01,11,11,8.00
2020,02,01,11,12,8.10
2020,02,01,11,13,8.10
2020,02,01,11,14,8.10
2020,02,01,11,15,8.10
2020,02,01,11,16,8.10
2020,02,01,11,17,8.10
2020,02,01,11,18,8.00
2020,02,01,11,19,8.00
2020,02,01,11,20,8.00
2020,02,01,11,21,8.00
2020,02,01,11,22,8.00
2020,02,01,11,23,8.00
2020,02,01,11,24,8.00
2020,02,01,11,25,8.10
2020,02,01,11,26,8.10
2020,02,01,11,27,8.10
2020,02,01,11,28,8.10
2020,02,01,11,29,8.10
2020,02,01,11,30,8.10
2020,02,01,11,31,8.10
2020,02,01,11,32,8.20
2020,02,01,11,33,8.20
2020,02,01,11,34,8.20
2020,02,01,11,35,8.20
2020,02,01,11,36,8.20
2020,02,01,11,37,8.10
2020,02,01,11,38,8.10
2020,02,01,11,39,8.10
2020,02,01,11,40,8.20
2020,02,01,11,41,8.20
2020,02,01,11,42,8.20
2020,02,01,11,43,8.20
2020,02,01,11,44,8.20
2020,02,01,11,45,8.30
2020,02,01,11,46,8.30
2020,02,01,11,47,8.30
2020,02,01,11,48,8.30
2020,02,01,11,49,8.30
2020,02,01,11,50,8.30
2020,02,01,11,51,8.40
2020,02,01,11,52,8.40
2020,02,01,11,53,8.40
2020,02,01,11,54,8.40
2020,02,01,11,55,8.40
2020,02,01,11,56,8.40
2020,02,01,11,57,8.40
2020,02,01,11,58,8.40
2020,02,01,11,59,8.30
2020,02,01,12,00,8.40
2020,02,01,12,01,8.40
2020,02,01,12,02,8.40
2020,02,01,12,03,8.40
2020,02,01,12,04,8.40
2020,02,01,12,05,8.50
2020,02,01,12,06,8.40
2020,02,01,12,07,8.40
2020,02,01,12,08,8.40
2020,02,01,12,09,8.50
2020,02,01,12,10,8.50
2020,02,01,12,11,8.50
2020,02,01,12,12,8.60
2020,02,01,12,13,8.60
2020,02,01,12,14,8.60
2020,02,01,12,15,8.60
2020,02,01,12,16,8.70
2020,02,01,12,17,8.70
2020,02,01,12,18,8.70
2020,02,01,12,19,8.70
2020,02,01,12,20,8.70
2020,02,01,12,21,8.70
2020,02,01,12,22,8.70
2020,02,01,12,23,8.80
2020,02,01,12,24,8.90
2020,02,01,12,25,8.90
2020,02,01,12,26,8.90
2020,02,01,12,27,8.90
2020,02,01,12,28,8.90
2020,02,01,12,29,8.90
2020,02,01,12,30,8.90
2020,02,01,12,31,8.90
2020,02,01,12,32,8.90
2020,02,01,12,33,8.90
2020,02,01,12,34,8.90
2020,02,01,12,35,8.90
2020,02,01,12,36,8.80
2020,02,01,12,37,8.80
2020,02,01,12,38,8.80
2020,02,01,12,39,8.80
2020,02,01,12,40,8.70
2020,02,01,12,41,8.70
2020,02,01,12,42,8.70
2020,02,01,12,43,8.60
2020,02,01,12,44,8.60
2020,02,01,12,45,8.60
2020,02,01,12,46,8.60
2020,02,01,12,47,8.60
2020,02,01,12,48,8.60
2020,02,01,12,49,8.50
2020,02,01,12,50,8.50
2020,02,01,12,51,8.50
2020,02,01,12,52,8.40
2020,02,01,12,53,8.40
2020,02,01,12,54,8.30
2020,02,01,12,55,8.20
2020,02,01,12,56,8.20
2020,02,01,12,57,8.20
2020,02,01,12,58,8.10
2020,02,01,12,59,8.10
2020,02,01,13,00,8.10
2020,02,01,13,01,8.10
2020,02,01,13,02,8.00
2020,02,01,13,03,8.00
2020,02,01,13,04,8.00
2020,02,01,13,05,8.00
2020,02,01,13,06,7.90
2020,02,01,13,07,7.90
2020,02,01,13,08,7.90
2020,02,01,13,09,7.80
2020,02,01,13,10,7.80
2020,02,01,13,11,7.80
2020,02,01,13,12,7.80
2020,02,01,13,13,7.80
2020,02,01,13,14,7.80
2020,02,01,13,15,7.80
2020,02,01,13,16,7.70
2020,02,01,13,17,7.70
2020,02,01,13,18,7.70
2020,02,01,13,19,7.60
2020,02,01,13,20,7.60
2020,02,01,13,21,7.60
2020,02,01,13,22,7.60
2020,02,01,13,23,7.60
2020,02,01,13,24,7.60
2020,02,01,13,25,7.60
2020,02,01,13,26,7.60
2020,02,01,13,27,7.60
2020,02,01,13,28,7.70
2020,02,01,13,29,7.70
2020,02,01,13,30,7.70
2020,02,01,13,31,7.70
2020,02,01,13,32,7.70
2020,02,01,13,33,7.70
2020,02,01,13,34,7.70
2020,02,01,13,35,7.80
2020,02,01,13,36,7.80
2020,02,01,13,37,7.90
2020,02,01,13,38,7.90
2020,02,01,13,39,7.90
2020,02,01,13,40,7.90
2020,02,01,13,41,7.90
2020,02,01,13,42,7.90
2020,02,01,13,43,7.90
2020,02,01,13,44,7.90
2020,02,01,13,45,8.00
2020,02,01,13,46,8.00
2020,02,01,13,47,8.00
2020,02,01,13,48,8.00
2020,02,01,13,49,8.00
2020,02,01,13,50,8.10
2020,02,01,13,51,8.10
2020,02,01,13,52,8.10
2020,02,01,13,53,8.10
2020,02,01,13,54,8.20
2020,02,01,13,55,8.20
2020,02,01,13,56,8.20
2020,02,01,13,57,8.20
2020,02,01,13,58,8.20
2020,02,01,13,59,8.20
2020,02,01,14,00,8.20
2020,02,01,14,01,8.20
2020,02,01,14,02,8.30
2020,02,01,14,03,8.30
2020,02,01,14,04,8.30
2020,02,01,14,05,8.20
2020,02,01,14,06,8.20
2020,02,01,14,07,8.20
2020,02,01,14,08,8.20
2020,02,01,14,09,8.20
2020,02,01,14,10,8.10
2020,02,01,14,11,8.10
2020,02,01,14,12,8.10
2020,02,01,14,13,8.10
2020,02,01,14,14,8.00
2020,02,01,14,15,8.00
2020,02,01,14,16,8.00
2020,02,01,14,17,8.00
2020,02,01,14,18,8.00
2020,02,01,14,19,8.00
2020,02,01,14,20,8.00
2020,02,01,14,21,7.90
2020,02,01,14,22,7.90
2020,02,01,14,23,7.80
2020,02,01,14,24,7.80
2020,02,01,14,25,7.80
2020,02,01,14,26,7.70
2020,02,01,14,27,7.70
2020,02,01,14,28,7.70
2020,02,01,14,29,7.70
2020,02,01,14,30,7.70
2020,02,01,14,31,7.60
2020,02,01,14,32,7.60
2020,02,01,14,33,7.60
2020,02,01,14,34,7.50
2020,02,01,14,35,7.50
2020,02,01,14,36,7.50
2020,02,01,14,37,7.50
2020,02,01,14,38,7.50
2020,02,01,14,39,7.50
2020,02,01,14,40,7.50
2020,02,01,14,41,7.50
2020,02,01,14,42,7.40
2020,02,01,14,43,7.40
2020,02,01,14,44,7.40
2020,02,01,14,45,7.40
2020,02,01,14,46,7.40
2020,02,01,14,47,7.40
2020,02,01,14,48,7.40
2020,02,01,14,49,7.40
2020,02,01,14,50,7.50
2020,02,01,14,51,7.50
2020,02,01,14,52,7.60
2020,02,01,14,53,7.60
2020,02,01,14,54,7.60
2020,02,01,14,55,7.70
2020,02,01,14,56,7.60
2020,02,01,14,57,7.50
2020,02,01,14,58,7.40
2020,02,01,14,59,7.40
2020,02,01,15,00,7.30
2020,02,01,15,01,7.30
2020,02,01,15,02,7.30
2020,02,01,15,03,7.20
2020,02,01,15,04,7.20
2020,02,01,15,05,7.10
2020,02,01,15,06,7.10
2020,02,01,15,07,7.00
2020,02,01,15,08,7.10
2020,02,01,15,09,7.10
2020,02,01,15,10,7.10
2020,02,01,15,11,7.20
2020,02,01,15,12,7.20
2020,02,01,15,13,7.20
2020,02,01,15,14,7.20
2020,02,01,15,15,7.20
2020,02,01,15,16,7.20
2020,02,01,15,17,7.20
2020,02,01,15,18,7.30
2020,02,01,15,19,7.30
2020,02,01,15,20,7.30
2020,02,01,15,21,7.30
2020,02,01,15,22,7.20
2020,02,01,15,23,7.20
2020,02,01,15,24,7.30
2020,02,01,15,25,7.30
2020,02,01,15,26,7.30
2020,02,01,15,27,7.30
2020,02,01,15,28,7.30
2020,02,01,15,29,7.20
2020,02,01,15,30,7.20
2020,02,01,15,31,7.20
2020,02,01,15,32,7.20
2020,02,01,15,33,7.20
2020,02,01,15,34,7.20
2020,02,01,15,35,7.30
2020,02,01,15,36,7.30
2020,02,01,15,37,7.30
2020,02,01,15,38,7.40
2020,02,01,15,39,7.30
2020,02,01,15,40,7.30
2020,02,01,15,41,7.20
2020,02,01,15,42,7.10
2020,02,01,15,43,7.00
2020,02,01,15,44,7.00
2020,02,01,15,45,7.00
2020,02,01,15,46,6.90
2020,02,01,15,47,6.90
2020,02,01,15,48,6.90
2020,02,01,15,49,6.90
2020,02,01,15,50,6.80
2020,02,01,15,51,6.80
2020,02,01,15,52,6.80
2020,02,01,15,53,6.80
2020,02,01,15,54,6.80
2020,02,01,15,55,6.80
2020,02,01,15,56,6.80
2020,02,01,15,57,6.80
2020,02,01,15,58,6.80
2020,02,01,15,59,6.80
2020,02,01,16,00,6.80
2020,02,01,16,01,6.70
2020,02,01,16,02,6.70
2020,02,01,16,03,6.70
2020,02,01,16,04,6.60
2020,02,01,16,05,6.60
2020,02,01,16,06,6.60
2020,02,01,16,07,6.50
2020,02,01,16,08,6.50
2020,02,01,16,09,6.40
2020,02,01,16,10,6.40
2020,02,01,16,11,6.40
2020,02,01,16,12,6.30
2020,02,01,16,13,6.30
2020,02,01,16,14,6.30
2020,02,01,16,15,6.30
2020,02,01,16,16,6.30
2020,02,01,16,17,6.30
2020,02,01,16,18,6.20
2020,02,01,16,19,6.20
2020,02,01,16,20,6.20
2020,02,01,16,21,6.20
2020,02,01,16,22,6.10
2020,02,01,16,23,6.10
2020,02,01,16,24,6.10
2020,02,01,16,25,6.10
2020,02,01,16,26,6.10
2020,02,01,16,27,6.00
2020,02,01,16,28,6.00
2020,02,01,16,29,6.00
2020,02,01,16,30,5.90
2020,02,01,16,31,5.90
2020,02,01,16,32,5.90
2020,02,01,16,33,5.90
2020,02,01,16,34,5.90
2020,02,01,16,35,5.90
2020,02,01,16,36,5.90
2020,02,01,16,37,5.90
2020,02,01,16,38,5.90
2020,02,01,16,39,5.80
2020,02,01,16,40,5.80
2020,02,01,16,41,5.80
2020,02,01,16,42,5.80
2020,02,01,16,43,5.80
2020,02,01,16,44,5.80
2020,02,01,16,45,5.80
2020,02,01,16,46,5.80
2020,02,01,16,47,5.70
2020,02,01,16,48,5.70
2020,02,01,16,49,5.70
2020,02,01,16,50,5.70
2020,02,01,16,51,5.70
2020,02,01,16,52,5.60
2020,02,01,16,53,5.60
2020,02,01,16,54,5.60
2020,02,01,16,55,5.60
2020,02,01,16,56,5.50
2020,02,01,16,57,5.50
2020,02,01,16,58,5.50
2020,02,01,16,59,5.40
2020,02,01,17,00,5.40
2020,02,01,17,01,5.40
2020,02,01,17,02,5.30
2020,02,01,17,03,5.30
2020,02,01,17,04,5.30
2020,02,01,17,05,5.30
2020,02,01,17,06,5.30
2020,02,01,17,07,5.30
2020,02,01,17,08,5.20
2020,02,01,17,09,5.20
2020,02,01,17,10,5.20
2020,02,01,17,11,5.20
2020,02,01,17,12,5.20
2020,02,01,17,13,5.20
2020,02,01,17,14,5.20
2020,02,01,17,15,5.20
2020,02,01,17,16,5.10
2020,02,01,17,17,5.10
2020,02,01,17,18,5.10
2020,02,01,17,19,5.10
2020,02,01,17,20,5.10
2020,02,01,17,21,5.10
2020,02,01,17,22,5.10
2020,02,01,17,23,5.00
2020,02,01,17,24,5.00
2020,02,01,17,25,5.00
2020,02,01,17,26,5.00
2020,02,01,17,27,5.00
2020,02,01,17,28,4.90
2020,02,01,17,29,4.90
2020,02,01,17,30,4.90
2020,02,01,17,31,4.90
2020,02,01,17,32,4.90
2020,02,01,17,33,4.80
2020,02,01,17,34,4.80
2020,02,01,17,35,4.80
2020,02,01,17,36,4.80
2020,02,01,17,37,4.80
2020,02,01,17,38,4.80
2020,02,01,17,39,4.70
2020,02,01,17,40,4.70
2020,02,01,17,41,4.70
2020,02,01,17,42,4.70
2020,02,01,17,43,4.70
2020,02,01,17,44,4.70
2020,02,01,17,45,4.80
2020,02,01,17,46,4.80
2020,02,01,17,47,4.80
2020,02,01,17,48,4.80
2020,02,01,17,49,4.80
2020,02,01,17,50,4.80
2020,02,01,17,51,4.80
2020,02,01,17,52,4.80
2020,02,01,17,53,4.80
2020,02,01,17,54,4.80
2020,02,01,17,55,4.80
2020,02,01,17,56,4.80
2020,02,01,17,57,4.80
2020,02,01,17,58,4.80
2020,02,01,17,59,4.70
2020,02,01,18,00,4.70
2020,02,01,18,01,4.70
2020,02,01,18,02,4.70
2020,02,01,18,03,4.70
2020,02,01,18,04,4.70
2020,02,01,18,05,4.70
2020,02,01,18,06,4.70
2020,02,01,18,07,4.60
2020,02,01,18,08,4.60
2020,02,01,18,09,4.60
2020,02,01,18,10,4.60
2020,02,01,18,11,4.60
2020,02,01,18,12,4.60
2020,02,01,18,13,4.60
2020,02,01,18,14,4.60
2020,02,01,18,15,4.60
2020,02,01,18,16,4.60
2020,02,01,18,17,4.60
2020,02,01,18,18,4.60
2020,02,01,18,19,4.60
2020,02,01,18,20,4.50
2020,02,01,18,21,4.50
2020,02,01,18,22,4.50
2020,02,01,18,23,4.50
2020,02,01,18,24,4.50
2020,02,01,18,25,4.50
2020,02,01,18,26,4.40
2020,02,01,18,27,4.40
2020,02,01,18,28,4.40
2020,02,01,18,29,4.40
2020,02,01,18,30,4.50
2020,02,01,18,31,4.50
2020,02,01,18,32,4.60
2020,02,01,18,33,4.60
2020,02,01,18,34,4.60
2020,02,01,18,35,4.60
2020,02,01,18,36,4.70
2020,02,01,18,37,4.70
2020,02,01,18,38,4.70
2020,02,01,18,39,4.70
2020,02,01,18,40,4.70
2020,02,01,18,41,4.70
2020,02,01,18,42,4.70
2020,02,01,18,43,4.70
2020,02,01,18,44,4.70
2020,02,01,18,45,4.70
2020,02,01,18,46,4.70
2020,02,01,18,47,4.70
2020,02,01,18,48,4.70
2020,02,01,18,49,4.70
2020,02,01,18,50,4.60
2020,02,01,18,51,4.60
2020,02,01,18,52,4.60
2020,02,01,18,53,4.50
2020,02,01,18,54,4.50
2020,02,01,18,55,4.40
2020,02,01,18,56,4.40
2020,02,01,18,57,4.40
2020,02,01,18,58,4.30
2020,02,01,18,59,4.30
2020,02,01,19,00,4.30
2020,02,01,19,01,4.30
2020,02,01,19,02,4.30
2020,02,01,19,03,4.20
2020,02,01,19,04,4.20
2020,02,01,19,05,4.20
2020,02,01,19,06,4.20
2020,02,01,19,07,4.20
2020,02,01,19,08,4.10
2020,02,01,19,09,4.10
2020,02,01,19,10,4.10
2020,02,01,19,11,4.10
2020,02,01,19,12,4.10
2020,02,01,19,13,4.00
2020,02,01,19,14,4.10
2020,02,01,19,15,4.00
2020,02,01,19,16,4.00
2020,02,01,19,17,4.00
2020,02,01,19,18,3.90
2020,02,01,19,19,3.90
2020,02,01,19,20,3.90
2020,02,01,19,21,3.90
2020,02,01,19,22,3.90
2020,02,01,19,23,3.80
2020,02,01,19,24,3.80
2020,02,01,19,25,3.80
2020,02,01,19,26,3.80
2020,02,01,19,27,3.80
2020,02,01,19,28,3.80
2020,02,01,19,29,3.70
2020,02,01,19,30,3.70
2020,02,01,19,31,3.70
2020,02,01,19,32,3.70
2020,02,01,19,33,3.70
2020,02,01,19,34,3.70
2020,02,01,19,35,3.70
2020,02,01,19,36,3.70
2020,02,01,19,37,3.70
2020,02,01,19,38,3.70
2020,02,01,19,39,3.80
2020,02,01,19,40,3.80
2020,02,01,19,41,3.80
2020,02,01,19,42,3.80
2020,02,01,19,43,3.80
2020,02,01,19,44,3.80
2020,02,01,19,45,3.80
2020,02,01,19,46,3.80
2020,02,01,19,47,3.80
2020,02,01,19,48,3.80
2020,02,01,19,49,3.80
2020,02,01,19,50,3.80
2020,02,01,19,51,3.80
2020,02,01,19,52,3.80
2020,02,01,19,53,3.80
2020,02,01,19,54,3.80
2020,02,01,19,55,3.80
2020,02,01,19,56,3.80
2020,02,01,19,57,3.70
2020,02,01,19,58,3.70
2020,02,01,19,59,3.70
2020,02,01,20,00,3.70
2020,02,01,20,01,3.70
2020,02,01,20,02,3.70
2020,02,01,20,03,3.70
2020,02,01,20,04,3.70
2020,02,01,20,05,3.70
2020,02,01,20,06,3.70
2020,02,01,20,07,3.70
2020,02,01,20,08,3.70
2020,02,01,20,09,3.70
2020,02,01,20,10,3.70
2020,02,01,20,11,3.70
2020,02,01,20,12,3.70
2020,02,01,20,13,3.70
2020,02,01,20,14,3.60
2020,02,01,20,15,3.60
2020,02,01,20,16,3.60
2020,02,01,20,17,3.60
2020,02,01,20,18,3.60
2020,02,01,20,19,3.60
2020,02,01,20,20,3.60
2020,02,01,20,21,3.60